sat.trackr.live / text

‹ back to catalog

STARLINK-34198

NORAD 64388 · 2025-127U

PAYLOAD ACTIVE UNKNOWN

§ Identity

Operator
Country
US
Launch date
2025-06-13
Launch site
AFETR
Launch vehicle
Mass (kg)
RCS (m²)

Purposes: comms

External: N2YO · Heavens-Above · Gunter

§ Orbital elements

Epoch: 2026-09-20T10:13:16.498560Z

Period
94.27 min
Inclination
42.9980°
Eccentricity
0.0001476
Mean motion
15.27585274 rev/d
Perigee alt
482.0 km
Apogee alt
484.0 km
Semi-major
6,861.2 km
B*
2.7264e-4
RAAN
159.6523°
Arg perigee
267.3912°
Mean anomaly
92.6771°
Rev number
7,225

§ Raw data

STARLINK-341981 64388U 25127U   26263.42588540  .00007249  00000+0  27264-3 0  99962 64388  42.9980 159.6523 0001476 267.3912  92.6771 15.27585274 72256

JSON: /api/v1/satellites/64388 · /tle

For live sub-satellite position, see the globe view (requires WebGL).

§ Visibility from observer

Set your observer location to see the next 7 days of passes ≥ 10°. The values pass through the URL so the page stays shareable.

No JS? Fill the form by hand. The geolocation button needs JavaScript.